Weather History for KACT - October, 2010

Change the Weather History Date:

Friday, October 22, 2010

  Actual Average Record
Temperature  
Mean Temperature 77 °F 66 °F  
Max Temperature 87 °F 78 °F 94 °F (1999)
Min Temperature 67 °F 55 °F 38 °F (1911)
Degree Days  
Heating Degree Days 0 3  
Month to date heating degree days 17 31  
Since 1 July heating degree days 17 37  
Cooling Degree Days 12 4  
Month to date cooling degree days 104 130  
Year to date cooling degree days 3094 2724  
Growing Degree Days 26 (Base 50)    
Moisture  
Dew Point 65 °F    
Average Humidity 68    
Maximum Humidity 93    
Minimum Humidity 42    
Precipitation  
Precipitation T in 0.13 in 3.60 in (2004)
Month to date precipitation T 2.84  
Year to date precipitation 37.29 28.06  
Snow  
Snow 0.00 in 0.00 in 0.00 in ()
Month to date snowfall 0.0 0.0  
Since 1 July snowfall 0.0 0.0  
Since 1 September snowfall 0.0 0.0  
Snow Depth 0.00 in    
Sea Level Pressure  
Sea Level Pressure 29.94 in    
Wind  
Wind Speed 14 mph (SSE)    
Max Wind Speed 23 mph    
Max Gust Speed 29 mph    
Visibility 10 miles    
Events Rain    
T = Trace of Precipitation, MM = Missing Value Source: NWS Daily Summary

Daily Weather History Graph

Daily Weather History Graph

Search for Another Location

Airport or City:

Trip Planner

Search our weather history database for the weather conditions in past years. The results will help you decide how hot, cold, wet, or windy it might be!

Date:

Astronomy

Oct. 22, 2010 Rise Set
Actual Time 7:37 AM CDT 6:49 PM CDT
Civil Twilight 7:12 AM CDT 7:13 PM CDT
Nautical Twilight 6:43 AM CDT 7:42 PM CDT
Astronomical Twilight 6:15 AM CDT 8:10 PM CDT
Moon 6:24 PM CDT (10/22) 7:14 AM CDT (10/22)
Length of Visible Light 12h 01m
Length of Day
11h 11m
Full, 100% of the Moon is Illuminated
Oct 22
Full
Oct 22
Full
Oct 30
Last Quarter
Nov 5
New
Nov 13
First Quarter

Hourly Weather History & Observations

Time (CDT) Temp. Heat Index Dew Point Humidity Pressure Visibility Wind Dir Wind Speed Gust Speed Precip Events Conditions
12:51 AM 73.9 °F - 63.0 °F 68% 29.92 in 10.0 mi South 13.8 mph - N/A   Clear
1:51 AM 73.0 °F - 64.9 °F 76% 29.94 in 10.0 mi South 15.0 mph - N/A   Clear
2:51 AM 72.0 °F - 64.9 °F 78% 29.93 in 10.0 mi South 10.4 mph - N/A   Clear
3:51 AM 70.0 °F - 64.9 °F 84% 29.93 in 10.0 mi SSE 5.8 mph - N/A   Clear
4:51 AM 66.9 °F - 64.0 °F 90% 29.92 in 10.0 mi SE 5.8 mph - N/A   Partly Cloudy
5:33 AM 68.0 °F - 64.4 °F 88% 29.95 in 10.0 mi SE 8.1 mph - N/A   Mostly Cloudy
5:51 AM 68.0 °F - 64.4 °F 88% 29.96 in 10.0 mi SE 4.6 mph - N/A   Overcast
6:51 AM 68.0 °F - 64.0 °F 87% 29.95 in 9.0 mi ESE 6.9 mph - N/A   Overcast
7:07 AM 68.0 °F - 64.4 °F 88% 29.97 in 9.0 mi ESE 4.6 mph - N/A   Overcast
7:51 AM 69.1 °F - 64.9 °F 87% 29.95 in 8.0 mi SE 3.5 mph - N/A   Overcast
8:51 AM 71.1 °F - 66.0 °F 84% 29.96 in 9.0 mi SE 12.7 mph 20.7 mph N/A   Overcast
9:35 AM 73.4 °F - 66.2 °F 78% 29.99 in 10.0 mi SSE 13.8 mph - N/A   Mostly Cloudy
9:51 AM 73.9 °F - 66.9 °F 79% 29.98 in 10.0 mi SSE 11.5 mph 19.6 mph N/A   Overcast
10:30 AM 73.4 °F - 66.2 °F 78% 29.97 in 10.0 mi SE 13.8 mph 23.0 mph 0.00 in Rain Light Rain
10:47 AM 73.4 °F - 66.2 °F 78% 29.99 in 10.0 mi SSE 6.9 mph - 0.00 in Rain Light Rain
10:51 AM 75.0 °F - 68.0 °F 79% 29.97 in 10.0 mi South 11.5 mph - 0.00 in Rain Light Rain
11:10 AM 75.2 °F - 66.2 °F 73% 29.99 in 10.0 mi South 11.5 mph - 0.00 in Rain Light Rain
11:18 AM 75.2 °F - 66.2 °F 73% 29.99 in 10.0 mi South 17.3 mph 21.9 mph 0.00 in   Mostly Cloudy
11:51 AM 78.8 °F - 66.2 °F 65% 29.99 in 10.0 mi South 16.1 mph - N/A   Scattered Clouds
12:18 PM 78.8 °F - 66.2 °F 65% 29.99 in 10.0 mi SSE 15.0 mph - N/A   Mostly Cloudy
12:51 PM 81.0 °F 83.0 °F 66.0 °F 60% 29.96 in 10.0 mi South 18.4 mph 24.2 mph N/A   Mostly Cloudy
1:51 PM 81.0 °F 82.5 °F 64.0 °F 56% 29.93 in 10.0 mi South 17.3 mph - N/A   Mostly Cloudy
2:51 PM 82.4 °F 83.4 °F 62.6 °F 51% 29.92 in 10.0 mi South 17.3 mph - N/A   Scattered Clouds
3:51 PM 86.0 °F 86.1 °F 61.0 °F 43% 29.87 in 10.0 mi South 20.7 mph 26.5 mph N/A   Scattered Clouds
4:51 PM 84.2 °F 85.0 °F 62.6 °F 48% 29.88 in 10.0 mi South 19.6 mph 25.3 mph N/A   Partly Cloudy
5:51 PM 84.0 °F 84.9 °F 63.0 °F 49% 29.86 in 10.0 mi South 12.7 mph - N/A   Overcast
6:51 PM 82.9 °F 84.0 °F 63.0 °F 51% 29.86 in 10.0 mi SSE 17.3 mph 24.2 mph N/A   Mostly Cloudy
7:51 PM 82.0 °F 83.0 °F 62.1 °F 51% 29.88 in 10.0 mi SSE 17.3 mph 23.0 mph N/A   Overcast
8:51 PM 81.0 °F 81.9 °F 62.1 °F 52% 29.90 in 10.0 mi SSE 13.8 mph - N/A   Overcast
9:51 PM 79.0 °F - 63.0 °F 58% 29.91 in 10.0 mi SSE 17.3 mph - N/A   Overcast
10:51 PM 77.0 °F - 64.0 °F 64% 29.93 in 10.0 mi South 18.4 mph 26.5 mph N/A   Clear
11:51 PM 75.9 °F - 64.9 °F 69% 29.94 in 10.0 mi South 16.1 mph 25.3 mph N/A   Scattered Clouds
11:59 PM 75.2 °F - 64.4 °F 69% 29.96 in 10.0 mi South 18.4 mph 26.5 mph N/A   Mostly Cloudy